Regional Weather Roundup
Issued by NWS Cleveland, OH

Home | Current Version | Previous Version | Graphics & Text | Print | Product List | Glossary On
Versions: 1 2 3 4 5 6 7 8 9 10 11 12 13 14 15 16 17 18 19 20 21 22 23 24 25 26 27 28 29 30 31 32 33 34 35 36 37 38 39 40 41 42 43 44 45 46 47 48 49 50
000
ASUS41 KCLE 280712
RWRCLE
OHIO REGIONAL WEATHER ROUNDUP
NATIONAL WEATHER SERVICE WILMINGTON, OH
200 AM EST TUE FEB 28 2017

NOTE: "FAIR" INDICATES FEW OR NO CLOUDS BELOW 12,000 FEET WITH NO
SIGNIFICANT WEATHER AND/OR OBSTRUCTIONS TO VISIBILITY.

OHZ001>008-015>018-024>027-034-035-043-044-280800-
   NORTHWEST OHIO

CITY           SKY/WX    TMP DP  RH WIND       PRES   REMARKS
DEFIANCE       MOCLDY    40  39  97 SE5       30.15F
FINDLAY        FAIR      41  37  86 SE9       30.15F
TOLEDO EXPRESS FAIR      37  37 100 E3        30.16F FOG
TOLEDO EXEC    FAIR      38  38 100 SE6       30.18F FOG
LIMA           FAIR      42  39  89 SE12      30.13F
$$

OHZ009>014-019>023-028>033-038-089-280800-
   NORTHEAST OHIO

CITY           SKY/WX    TMP DP  RH WIND       PRES   REMARKS
CLE-HOPKINS    CLOUDY    41  35  79 SE7       30.24F
CLE-LAKEFRONT  MOCLDY    43  37  79 SE9       30.22S
CUY CO. ARPT   NOT AVBL
LORAIN-ELYRIA  FAIR      38  34  85 S6        30.22S
ASHTABULA      CLOUDY    40  37  89 S6        30.26R
AKRON-CANTON   FAIR      37  34  89 SE6       30.23R FOG
WOOSTER        FOG       32  31  96 CALM      30.23R VSB 1/4
MANSFIELD      FAIR      39  37  92 S8        30.21R
YOUNGSTOWN     CLOUDY    38  36  92 SE5       30.24F
$$

OHZ042-051>053-060>062-070>072-077>081-280800-
  SOUTHWEST OHIO

CITY           SKY/WX    TMP DP  RH WIND       PRES   REMARKS
CINC-COVINGTON CLOUDY    44  39  82 S9        30.14F
CINC-LUNKEN    FAIR      37  37 100 CALM      30.17F FOG
HAMILTON       FAIR      44  40  85 SE5       30.16F
DAYTON         MOCLDY    41  38  89 SE9       30.14F
WRIGHT-PAT AFB CLOUDY    42  40  91 CALM      30.15F
DAYTON GENERAL FAIR      45  38  76 S9        30.14F
WILMINGTON     FAIR      43  37  79 SE8       30.14F
$$

OHZ036-037-039>041-045>050-054>059-063>069-073>076-082>088-280800-
  CENTRAL AND SOUTHEAST OHIO

CITY           SKY/WX    TMP DP  RH WIND       PRES   REMARKS
COLUMBUS       CLOUDY    41  38  89 E5        30.20F
OSU AIRPORT    FAIR      37  37 100 SE6       30.18F FOG
BOLTON FIELD   FAIR      39  39 100 SE5       30.20F
RICKENBACK AFB   N/A     37  37 100 CALM      30.20F FOG
NEWARK         FAIR      33  32  96 CALM      30.21F FOG
MARION         FAIR      38  36  92 SE10      30.19F
LANCASTER      FAIR      38  37  97 CALM      30.22S
ZANESVILLE     FOG       35  34  96 CALM      30.23S VSB 1/4
NEW PHILLY     FAIR      32  31  96 CALM      30.25R
$$




USA.gov is the U.S. government's official web portal to all federal, state and local government web resources and services.